Hettinger, ND

7:57 PM MDT on August 23, 2017 (GMT -0600)
Hettinger Municipal

Weather History for KHEI - November, 2013

Change the Weather History Date:

Sunday, November 17, 2013

  Actual Average Record
Temperature  
Mean Temperature 27 °F -  
Max Temperature 37 °F 40 °F 66 °F (2001)
Min Temperature 17 °F 17 °F 0 °F (1996)
Degree Days  
Heating Degree Days 38 37  
Month to date heating degree days 557 557  
Since 1 July heating degree days 1508 1612  
Moisture  
Dew Point 22 °F    
Average Humidity 88    
Maximum Humidity 100    
Minimum Humidity 64    
Precipitation  
Precipitation 0.00 in 0.02 in 0.01 in (2010)
Month to date precipitation 0.20 0.52  
Year to date precipitation 24.73 15.71  
Sea Level Pressure  
Sea Level Pressure 29.63 in    
Wind  
Wind Speed 9 mph (NW)    
Max Wind Speed 29 mph    
Max Gust Speed 35 mph    
Visibility 6 miles    
Events Fog    
T = Trace of Precipitation, MM = Missing Value Source: NWS Daily Summary

Daily Weather History Graph

Daily Weather History Graph

Search for Another Location

Airport or City:

Trip Planner

Search our weather history database for the weather conditions in past years. The results will help you decide how hot, cold, wet, or windy it might be!

Date:

Astronomy

Nov. 17, 2013 Rise Set
Actual Time 6:54 AM MST 4:16 PM MST
Civil Twilight 6:21 AM MST 4:49 PM MST
Nautical Twilight 5:45 AM MST 5:25 PM MST
Astronomical Twilight 5:09 AM MST 6:01 PM MST
Moon 4:35 PM MST (11/17) 6:49 AM MST (11/17)
Length of Visible Light 10h 27m
Length of Day
9h 22m
Full, 100% of the Moon is Illuminated
Nov 17
Full
Nov 25
Last Quarter
Dec 2
New
Dec 9
First Quarter
Dec 17
Full

Hourly Weather History & Observations

Time (MST) Temp. Windchill Dew Point Humidity Pressure Visibility Wind Dir Wind Speed Gust Speed Precip Events Conditions
12:53 AM 23.0 °F - 19.9 °F 88% 29.44 in 10.0 mi Calm Calm - N/A   Partly Cloudy
1:53 AM 23.0 °F - 21.9 °F 96% 29.46 in 8.0 mi Calm Calm - N/A   Clear
2:09 AM 19.4 °F - 17.6 °F 93% 29.40 in 2.0 mi Calm Calm - N/A   Clear
2:15 AM 19.4 °F 14.3 °F 17.6 °F 93% 29.40 in 5.0 mi NNW 3.5 mph - N/A   Partly Cloudy
2:17 AM 19.4 °F - 17.6 °F 93% 29.40 in 1.8 mi Calm Calm - N/A   Partly Cloudy
2:20 AM 21.2 °F - 19.4 °F 93% 29.40 in 0.8 mi Calm Calm - N/A   Mist
2:35 AM 19.4 °F - 19.4 °F 100% 29.41 in 0.2 mi Calm Calm - N/A Fog Light Freezing Fog
2:41 AM 21.2 °F - 17.6 °F 86% 29.41 in 1.0 mi Calm Calm - N/A   Mist
2:43 AM 19.4 °F - 17.6 °F 93% 29.41 in 2.5 mi Calm Calm - N/A   Partly Cloudy
2:50 AM 19.4 °F - 17.6 °F 93% 29.41 in 3.0 mi Calm Calm - N/A   Partly Cloudy
2:53 AM 19.0 °F - 17.1 °F 92% 29.48 in 1.0 mi Calm Calm - N/A   Mist
3:01 AM 21.2 °F 16.4 °F 17.6 °F 86% 29.42 in 0.8 mi NW 3.5 mph - N/A   Mist
3:05 AM 19.4 °F - 17.6 °F 93% 29.42 in 2.0 mi Calm Calm - N/A   Mostly Cloudy
3:12 AM 21.2 °F - 19.4 °F 93% 29.42 in 5.0 mi Calm Calm - N/A   Overcast
3:20 AM 21.2 °F - 19.4 °F 93% 29.42 in 1.8 mi Calm Calm - N/A   Overcast
3:30 AM 21.2 °F - 19.4 °F 93% 29.42 in 0.5 mi Calm Calm - N/A Fog Light Freezing Fog
3:53 AM 17.1 °F 11.7 °F 15.1 °F 92% 29.51 in 0.2 mi WNW 3.5 mph - N/A Fog Light Freezing Fog
4:15 AM 19.4 °F 14.3 °F 17.6 °F 93% 29.44 in 0.5 mi WNW 3.5 mph - N/A Fog Light Freezing Fog
4:22 AM 19.4 °F 12.8 °F 17.6 °F 93% 29.45 in 2.5 mi NW 4.6 mph - N/A   Mostly Cloudy
4:29 AM 21.2 °F 14.9 °F 19.4 °F 93% 29.45 in 9.0 mi NNW 4.6 mph - N/A   Mostly Cloudy
4:37 AM 21.2 °F 16.4 °F 19.4 °F 93% 29.46 in 10.0 mi NW 3.5 mph - N/A   Scattered Clouds
4:53 AM 27.0 °F 15.6 °F 25.0 °F 92% 29.53 in 10.0 mi NNW 13.8 mph 18.4 mph N/A   Scattered Clouds
5:02 AM 28.4 °F 17.5 °F 26.6 °F 93% 29.47 in 4.0 mi NNW 13.8 mph - N/A   Mostly Cloudy
5:08 AM 28.4 °F 18.5 °F 26.6 °F 93% 29.47 in 1.8 mi NNW 11.5 mph - N/A   Mostly Cloudy
5:28 AM 30.2 °F 23.4 °F 28.4 °F 93% 29.49 in 0.8 mi NW 6.9 mph - N/A   Mist
5:53 AM 28.9 °F 21.9 °F 28.0 °F 96% 29.57 in 1.2 mi WNW 6.9 mph - N/A   Overcast
5:58 AM 28.4 °F 19.7 °F 28.4 °F 100% 29.51 in 3.0 mi WNW 9.2 mph - N/A   Overcast
6:32 AM 28.4 °F 18.5 °F 28.4 °F 100% 29.54 in 10.0 mi NW 11.5 mph - N/A   Mostly Cloudy
6:53 AM 28.9 °F 19.2 °F 28.0 °F 96% 29.62 in 10.0 mi WNW 11.5 mph - N/A   Scattered Clouds
7:30 AM 30.2 °F 21.9 °F 28.4 °F 93% 29.58 in 10.0 mi WNW 9.2 mph - N/A   Overcast
7:53 AM 32.0 °F 22.5 °F 30.9 °F 96% 29.68 in 10.0 mi WNW 12.7 mph - N/A   Overcast
8:53 AM 34.0 °F 23.4 °F 32.0 °F 92% 29.71 in 10.0 mi WNW 17.3 mph - N/A   Overcast
9:53 AM 32.0 °F 20.1 °F 28.0 °F 85% 29.77 in 10.0 mi WNW 19.6 mph 28.8 mph N/A   Overcast
10:11 AM 32.0 °F 19.5 °F 28.4 °F 87% 29.70 in 10.0 mi WNW 21.9 mph 31.1 mph N/A   Overcast
10:53 AM 32.0 °F 19.2 °F 27.0 °F 82% 29.79 in 10.0 mi WNW 23.0 mph 29.9 mph N/A   Overcast
11:53 AM 33.1 °F 20.6 °F 25.0 °F 72% 29.83 in 10.0 mi NW 23.0 mph 31.1 mph N/A   Overcast
12:51 PM 33.8 °F 22.8 °F 24.8 °F 70% 29.76 in 10.0 mi WNW 18.4 mph - N/A   Overcast
12:53 PM 34.0 °F 23.4 °F 25.0 °F 70% 29.85 in 10.0 mi WNW 17.3 mph - N/A   Overcast
1:53 PM 36.0 °F 25.0 °F 24.1 °F 62% 29.87 in 10.0 mi West 20.7 mph 29.9 mph N/A   Mostly Cloudy
2:09 PM 35.6 °F 25.5 °F 24.8 °F 65% 29.79 in 10.0 mi WNW 17.3 mph - N/A   Scattered Clouds
2:53 PM 35.1 °F 24.8 °F 24.1 °F 64% 29.91 in 10.0 mi WNW 17.3 mph 24.2 mph N/A   Partly Cloudy
3:53 PM 33.1 °F 23.9 °F 23.0 °F 66% 29.94 in 10.0 mi WNW 12.7 mph - N/A   Clear
4:53 PM 27.0 °F 18.0 °F 21.0 °F 78% 29.97 in 10.0 mi West 9.2 mph - N/A   Clear
5:53 PM 23.0 °F - 19.0 °F 85% 29.99 in 10.0 mi Calm Calm - N/A   Clear
6:53 PM 19.9 °F - 17.1 °F 89% 30.00 in 10.0 mi Calm Calm - N/A   Scattered Clouds
7:53 PM 25.0 °F 19.3 °F 19.9 °F 81% 30.01 in 10.0 mi West 4.6 mph - N/A   Mostly Cloudy
8:53 PM 21.9 °F 15.7 °F 19.0 °F 89% 30.01 in 10.0 mi NNW 4.6 mph - N/A   Clear
9:53 PM 21.0 °F 13.4 °F 17.1 °F 85% 30.05 in 10.0 mi WNW 5.8 mph - N/A   Clear
10:53 PM 21.0 °F 16.2 °F 18.0 °F 88% 30.05 in 10.0 mi NW 3.5 mph - N/A   Clear
11:53 PM 17.1 °F - 14.0 °F 88% 30.07 in 10.0 mi Calm Calm - N/A   Clear